Notices

What's New in latest Release from April 7th, 2021:

- Updated Glossary, including Speed of Maximum Gust, and Total Hourly Precipitation

- Updated national and regional climate services offices contacts and prices information

- Addition of station inventory lists for 1981-2010, 1971-2000, and 1961-1990 Normals.

If you haven't already, please take our survey and provide feedback about our website: https://eccc.sondage-survey.ca/f/LanguageSelection.aspx?s=442ca660-fcf1-47c0-95a9-59707d6fd709

Hourly Data Report for September 10, 2019

TORONTO CITY
ONTARIO
Current Station Operator: ECCC - MSC

43°40'00.000" N
79°24'00.000" W
112.50 m
6158355
71508
XTO

Download Data

Hourly Data (September 2019)
Hourly Data Report for September 10, 2019
TIME
LST
Temp Definition
°C
Dew Point Definition
°C
Rel Hum Definition
%
Precip. Amount Definition
mm

Wind Dir Definition
10's deg

Wind Spd Definition
km/h
Visibility Definition
km
Stn Press Definition
kPa
Hmdx Definition


Wind Chill Definition


Weather Definition


00:00 14.6 7.8 64 0.0       101.23     LegendNANA
01:00 14.3 8.6 68 0.0       101.25     LegendNANA
02:00 13.6 9.2 75 0.0       101.24     LegendNANA
03:00 13.2 9.3 77 0.0       101.16     LegendNANA
04:00 13.0 8.9 76 0.0       101.14     LegendNANA
05:00 12.8 8.8 76 0.0       101.06     LegendNANA
06:00 13.9 9.0 72 0.0       101.09     LegendNANA
07:00 16.6 9.7 64 0.0       101.09     LegendNANA
08:00 17.5 10.3 63 0.0       101.07     LegendNANA
09:00 17.4 11.3 68 0.0       101.01     LegendNANA
10:00 18.7 11.4 63 0.0       101.00     LegendNANA
11:00 19.0 12.2 64 0.0       100.91     LegendNANA
12:00 19.9 12.4 62 0.0       100.82     LegendNANA
13:00 20.0 13.1 64 0.0       100.75     LegendNANA
14:00 20.2 13.1 63 0.0       100.69     LegendNANA
15:00 20.2 13.7 67 0.0       100.66     LegendNANA
16:00 20.1 14.2 69 0.0       100.57     LegendNANA
17:00 21.0 15.1 69 0.0       100.52 25   LegendNANA
18:00 21.1 15.4 70 0.0       100.47 25   LegendNANA
19:00 20.2 15.7 75 0.0       100.44 25   LegendNANA
20:00 20.4 16.1 77 0.0       100.44 25   LegendNANA
21:00 21.5 17.0 76 0.0       100.36 27   LegendNANA
22:00 21.4 16.6 75 0.0       100.33 26   LegendNANA
23:00 21.6 16.8 74 0.5       100.49 27   LegendNANA

Notes on Data Quality.

Legend

  • E = Estimated
  • M = Missing
  • NA = Not Available*
  • [empty] = Indicates an unobserved value
Date modified: